FW4242 Weather Reports


time (UTC)temp
F
wind
direction
speed
knots
gust
knots
rain 1hr
in
rain 24hr
in
rain mn
in
humidity
%
barometer
mb
20211017150150 47 70 0.0 0.0 0.00 0.00 0.00 92 1004.4
20211017144601 48 70 0.0 0.0 0.00 0.00 0.00 91 1004.5
20211017143042 48 70 0.0 1.7 0.00 0.00 0.00 92 1004.6
20211017140054 48 89 0.0 0.0 0.00 0.00 0.00 93 1004.8
20211017133050 47 79 0.0 0.9 0.00 0.00 0.00 93 1005.0
20211017130033 47 105 0.0 0.9 0.00 0.00 0.00 94 1005.3
20211017124529 47 103 0.0 0.0 0.00 0.00 0.00 94 1005.5
20211017123135 46 103 0.0 0.0 0.00 0.00 0.00 94 1005.7
20211017120044 47 103 0.0 0.0 0.00 0.00 0.00 94 1005.8
20211017114534 47 103 0.0 0.0 0.00 0.00 0.00 94 1005.9
20211017113038 47 103 0.0 0.0 0.00 0.00 0.00 94 1006.0
20211017110031 47 103 0.0 0.0 0.00 0.00 0.00 94 1006.3
20211017104518 47 103 0.0 0.0 0.00 0.00 0.00 94 1006.6
20211017103036 47 102 0.0 0.0 0.00 0.00 0.00 93 1006.7
20211017100041 46 343 0.0 0.0 0.00 0.00 0.00 93 1007.1
20211017094524 46 333 0.0 0.0 0.00 0.00 0.00 94 1007.3
20211017093006 46 333 0.0 0.0 0.00 0.00 0.00 93 1007.6
20211017090003 47 77 0.0 0.0 0.00 0.00 0.00 92 1007.8
20211017084733 48 76 0.0 0.0 0.00 0.00 0.00 93 1007.9
20211017083116 48 76 0.0 0.0 0.00 0.00 0.00 92 1007.9
20211017080121 49 36 0.0 0.0 0.00 0.00 0.00 92 1008.0
20211017074626 48 36 0.0 0.0 0.00 0.00 0.00 92 1008.1
20211017073111 49 36 0.0 0.0 0.00 0.00 0.00 92 1008.4
20211017070110 49 36 0.0 0.0 0.00 0.00 0.00 92 1008.9
20211017064600 48 36 0.0 0.0 0.00 0.00 0.00 91 1008.8
20211017063041 49 36 0.0 0.0 0.00 0.00 0.00 90 1008.9
20211017060046 49 36 0.0 0.0 0.00 0.00 0.00 90 1009.1
20211017054616 50 36 0.0 0.0 0.00 0.00 0.00 90 1009.2
20211017053125 50 295 0.0 0.0 0.00 0.00 0.00 90 1009.2
20211017050113 50 295 0.0 0.0 0.00 0.00 0.00 88 1009.2
20211017044607 51 295 0.0 0.0 0.00 0.00 0.00 88 1009.4
20211017043038 51 294 0.0 0.0 0.00 0.00 0.00 87 1009.5
20211017040032 52 294 0.0 0.0 0.00 0.00 0.00 85 1009.7
20211017034527 53 294 0.0 0.0 0.00 0.00 0.00 84 1009.8
20211017033050 53 294 0.0 0.0 0.00 0.00 0.00 84 1009.9
20211017030036 55 294 0.9 2.6 0.00 0.00 0.00 82 1010.1
20211017024544 55 188 0.0 0.0 0.00 0.00 0.00 81 1010.2
20211017023056 56 188 0.0 0.0 0.00 0.00 0.00 78 1010.3
20211017020034 58 188 0.0 0.0 0.00 0.00 0.00 75 1010.4
20211017014528 59 188 0.0 0.0 0.00 0.00 0.00 72 1010.5
20211017013032 61 188 0.0 0.0 0.00 0.00 0.00 69 1010.5
20211017010049 65 174 0.0 0.0 0.00 0.00 0.00 62 1010.7
20211017004522 66 157 0.0 0.0 0.00 0.00 0.00 58 1010.8
20211017003044 66 160 0.0 1.7 0.00 0.00 0.00 57 1010.9
20211017000016 68 169 0.0 3.5 0.00 0.00 0.00 54 1011.0
20211016234512 68 145 0.0 2.6 0.00 0.00 0.00 53 1011.2
20211016233009 68 134 0.9 3.5 0.00 0.00 0.00 54 1011.4
20211016230007 68 106 0.0 4.3 0.00 0.00 0.00 55 1012.2
20211016224505 68 108 0.9 4.3 0.00 0.00 0.00 56 1012.2
20211016223004 68 85 0.9 3.5 0.00 0.00 0.00 56 1012.4
20211016220141 67 151 2.6 6.1 0.00 0.00 0.00 59 1012.9
20211016214641 66 147 0.9 4.3 0.00 0.00 0.00 60 1013.2
20211016213142 65 237 0.0 5.2 0.00 0.00 0.00 62 1013.4
20211016210140 65 233 0.0 6.1 0.00 0.00 0.00 63 1014.0
20211016204610 65 37 0.9 4.3 0.00 0.00 0.00 62 1014.3
20211016203108 63 302 1.7 3.5 0.00 0.00 0.00 65 1014.6
20211016200122 64 224 0.9 3.5 0.00 0.00 0.00 63 1015.2
20211016194559 62 72 0.9 3.5 0.00 0.00 0.00 68 1015.2
20211016193045 62 149 0.9 5.2 0.00 0.00 0.00 68 1015.7
20211016190113 60 174 0.0 4.3 0.00 0.00 0.00 70 1016.0
20211016184547 58 304 0.9 2.6 0.00 0.00 0.00 72 1016.1
20211016183028 59 51 0.9 2.6 0.00 0.00 0.00 71 1016.3
20211016180044 58 174 0.0 1.7 0.00 0.00 0.00 73 1016.6
20211016174538 56 338 0.0 1.7 0.00 0.00 0.00 74 1016.7
20211016173051 57 14 0.0 0.9 0.00 0.00 0.00 74 1016.8
20211016170016 56 134 0.0 0.0 0.00 0.00 0.00 77 1016.8
20211016164528 55 118 0.0 0.0 0.00 0.00 0.00 80 1016.9
20211016163008 53 118 0.0 0.0 0.00 0.00 0.00 82 1017.0
20211016160003 48 89 0.0 0.0 0.00 0.00 0.00 92 1017.3
20211016154501 47 89 0.0 0.0 0.00 0.00 0.00 92 1017.3
20211016153155 45 88 0.0 0.0 0.00 0.00 0.00 93 1017.2